When you browse on this site, cookies collect data to enhance your experience and personalize the content and advertising you see.
Visit our Privacy Policy to learn more. By continuing to use the site, you agree to this use of cookies and data.
  • In Switzerland
  • List of Countries
  • For 7 days
  • Water Temperature
  • Weather Map
  • Weather Widgets
  • user-avatar
    Login

    Hourly Weather Tarin Kowt

    Today, 18 October, Friday

    Time Temperature Precipitation Wind Pressure Humidity
    00:00 +9°C° 0 mm 1 mps 616 mmHg 32%
    01:00 +9°C° 0 mm 1 mps 616 mmHg 34%
    02:00 +8°C° 0 mm 1 mps 616 mmHg 37%
    03:00 +8°C° 0 mm 1 mps 616 mmHg 39%
    04:00 +8°C° 0 mm 1 mps 616 mmHg 34%
    05:00 +10°C° 0 mm 1 mps 617 mmHg 32%
    06:00 +11°C° 0 mm 1 mps 618 mmHg 29%
    07:00 +13°C° 0 mm 1 mps 620 mmHg 26%
    08:00 +15°C° 0 mm 1 mps 620 mmHg 24%
    09:00 +18°C° 0 mm 1 mps 621 mmHg 22%
    10:00 +20°C° 0 mm 1 mps 621 mmHg 20%
    11:00 +21°C° 0 mm 1 mps 621 mmHg 19%
    12:00 +22°C° 0 mm 1 mps 621 mmHg 17%
    13:00 +23°C° 0 mm 1 mps 620 mmHg 16%
    14:00 +21°C° 0 mm 2 mps 620 mmHg 15%
    15:00 +21°C° 0 mm 2 mps 620 mmHg 15%
    16:00 +21°C° 0 mm 3 mps 619 mmHg 14%
    17:00 +18°C° 0 mm 2 mps 619 mmHg 18%
    18:00 +15°C° 0 mm 2 mps 618 mmHg 21%
    19:00 +11°C° 0 mm 1 mps 617 mmHg 24%
    20:00 +11°C° 0 mm 1 mps 617 mmHg 26%
    21:00 +10°C° 0 mm 1 mps 617 mmHg 27%
    22:00 +10°C° 0 mm 1 mps 617 mmHg 29%
    23:00 +9°C° 0 mm 1 mps 617 mmHg 31%

    Tomorrow, 19 October, Saturday

    Time Temperature Precipitation Wind Pressure Humidity
    00:00 +9°C° 0 mm 1 mps 617 mmHg 33%
    01:00 +9°C° 0 mm 1 mps 617 mmHg 36%
    02:00 +9°C° 0 mm 1 mps 617 mmHg 38%
    03:00 +8°C° 0 mm 1 mps 617 mmHg 40%
    04:00 +8°C° 0 mm 1 mps 617 mmHg 42%
    05:00 +10°C° 0 mm 1 mps 618 mmHg 37%
    06:00 +11°C° 0 mm 1 mps 619 mmHg 32%
    07:00 +13°C° 0 mm 1 mps 620 mmHg 27%
    08:00 +15°C° 0 mm 1 mps 621 mmHg 24%
    09:00 +18°C° 0 mm 1 mps 622 mmHg 20%
    10:00 +20°C° 0 mm 1 mps 622 mmHg 16%
    11:00 +20°C° 0 mm 2 mps 622 mmHg 15%
    12:00 +21°C° 0 mm 2 mps 622 mmHg 14%
    13:00 +22°C° 0 mm 3 mps 622 mmHg 12%
    14:00 +22°C° 0 mm 3 mps 621 mmHg 13%
    15:00 +22°C° 0 mm 3 mps 621 mmHg 13%
    16:00 +21°C° 0 mm 3 mps 620 mmHg 13%
    17:00 +18°C° 0 mm 2 mps 620 mmHg 17%
    18:00 +15°C° 0 mm 2 mps 619 mmHg 20%
    19:00 +12°C° 0 mm 1 mps 618 mmHg 24%
    20:00 +12°C° 0 mm 1 mps 618 mmHg 24%
    21:00 +11°C° 0 mm 0 mps 619 mmHg 24%
    22:00 +11°C° 0 mm 0 mps 619 mmHg 25%
    23:00 +11°C° 0 mm 0 mps 619 mmHg 25%

    Day after tomorrow, 20 October, Sunday

    Time Temperature Precipitation Wind Pressure Humidity
    00:00 +12°C° 0 mm 1 mps 618 mmHg 25%
    01:00 +12°C° 0 mm 1 mps 618 mmHg 25%
    02:00 +11°C° 0 mm 1 mps 618 mmHg 28%
    03:00 +10°C° 0 mm 1 mps 617 mmHg 31%
    04:00 +9°C° 0 mm 1 mps 617 mmHg 34%
    05:00 +11°C° 0 mm 1 mps 618 mmHg 30%
    06:00 +11°C° 0 mm 0 mps 619 mmHg 26%
    07:00 +13°C° 0 mm 0 mps 620 mmHg 22%
    08:00 +16°C° 0 mm 1 mps 621 mmHg 19%
    09:00 +19°C° 0 mm 1 mps 622 mmHg 16%
    10:00 +22°C° 0 mm 1 mps 622 mmHg 14%
    11:00 +21°C° 0 mm 2 mps 622 mmHg 13%
    12:00 +22°C° 0 mm 3 mps 622 mmHg 12%
    13:00 +23°C° 0 mm 4 mps 622 mmHg 11%
    14:00 +22°C° 0 mm 4 mps 621 mmHg 11%
    15:00 +22°C° 0 mm 4 mps 621 mmHg 10%
    16:00 +21°C° 0 mm 4 mps 620 mmHg 10%
    17:00 +18°C° 0 mm 3 mps 619 mmHg 13%
    18:00 +15°C° 0 mm 2 mps 619 mmHg 15%
    19:00 +12°C° 0 mm 1 mps 618 mmHg 18%
    20:00 +12°C° 0 mm 1 mps 618 mmHg 20%
    21:00 +11°C° 0 mm 1 mps 617 mmHg 21%
    22:00 +10°C° 0 mm 1 mps 617 mmHg 23%
    23:00 +10°C° 0 mm 1 mps 617 mmHg 26%

    21 October, Monday

    Time Temperature Precipitation Wind Pressure Humidity
    00:00 +8°C° 0 mm 0 mps 617 mmHg 28%
    01:00 +8°C° 0 mm 0 mps 616 mmHg 31%
    02:00 +8°C° 0 mm 0 mps 616 mmHg 35%
    03:00 +8°C° 0 mm 1 mps 616 mmHg 39%
    04:00 +8°C° 0 mm 1 mps 616 mmHg 43%
    05:00 +10°C° 0 mm 1 mps 617 mmHg 35%
    06:00 +12°C° 0 mm 1 mps 618 mmHg 27%
    07:00 +13°C° 0 mm 1 mps 619 mmHg 18%
    08:00 +16°C° 0 mm 1 mps 620 mmHg 16%
    09:00 +19°C° 0 mm 1 mps 621 mmHg 14%
    10:00 +21°C° 0 mm 1 mps 621 mmHg 11%
    11:00 +21°C° 0 mm 2 mps 621 mmHg 10%
    12:00 +23°C° 0 mm 2 mps 620 mmHg 9%
    13:00 +24°C° 0 mm 3 mps 620 mmHg 9%
    14:00 +22°C° 0 mm 3 mps 620 mmHg 9%
    15:00 +22°C° 0 mm 3 mps 619 mmHg 9%
    16:00 +21°C° 0 mm 3 mps 619 mmHg 9%
    17:00 +18°C° 0 mm 2 mps 618 mmHg 12%
    18:00 +15°C° 0 mm 2 mps 617 mmHg 14%
    19:00 +12°C° 0 mm 1 mps 616 mmHg 17%
    20:00 +12°C° 0 mm 1 mps 616 mmHg 18%
    21:00 +11°C° 0 mm 1 mps 616 mmHg 19%
    22:00 +10°C° 0 mm 1 mps 616 mmHg 20%
    23:00 +10°C° 0 mm 1 mps 615 mmHg 21%

    22 October, Tuesday

    Time Temperature Precipitation Wind Pressure Humidity
    00:00 +9°C° 0 mm 1 mps 615 mmHg 22%
    01:00 +9°C° 0 mm 1 mps 615 mmHg 23%
    02:00 +9°C° 0 mm 1 mps 615 mmHg 26%
    03:00 +8°C° 0 mm 1 mps 614 mmHg 30%
    04:00 +8°C° 0 mm 1 mps 614 mmHg 34%
    05:00 +10°C° 0 mm 1 mps 616 mmHg 28%
    06:00 +12°C° 0 mm 1 mps 617 mmHg 23%
    07:00 +14°C° 0 mm 1 mps 618 mmHg 18%
    08:00 +16°C° 0 mm 1 mps 619 mmHg 16%
    09:00 +19°C° 0 mm 1 mps 619 mmHg 14%
    10:00 +20°C° 0 mm 2 mps 620 mmHg 12%
    11:00 +21°C° 0 mm 3 mps 620 mmHg 13%
    12:00 +21°C° 0 mm 4 mps 619 mmHg 14%
    13:00 +22°C° 0 mm 6 mps 619 mmHg 15%
    14:00 +22°C° 0 mm 6 mps 619 mmHg 16%
    15:00 +21°C° 0 mm 7 mps 618 mmHg 17%
    16:00 +21°C° 0 mm 7 mps 618 mmHg 18%
    17:00 +19°C° 0 mm 6 mps 618 mmHg 22%
    18:00 +15°C° 0 mm 4 mps 617 mmHg 26%
    19:00 +13°C° 0 mm 3 mps 617 mmHg 30%
    20:00 +13°C° 0 mm 2 mps 616 mmHg 34%
    21:00 +11°C° 0 mm 1 mps 616 mmHg 38%
    22:00 +10°C° 0 mm 1 mps 615 mmHg 42%
    23:00 +9°C° 0 mm 1 mps 615 mmHg 45%

    23 October, Wednesday

    Time Temperature Precipitation Wind Pressure Humidity
    00:00 +9°C° 0 mm 1 mps 615 mmHg 48%
    01:00 +8°C° 0 mm 1 mps 614 mmHg 52%
    02:00 +8°C° 0 mm 1 mps 614 mmHg 54%
    03:00 +7°C° 0 mm 2 mps 614 mmHg 56%
    04:00 +7°C° 0 mm 2 mps 614 mmHg 58%
    05:00 +8°C° 0 mm 2 mps 615 mmHg 53%
    06:00 +9°C° 0 mm 2 mps 616 mmHg 48%
    07:00 +10°C° 0 mm 2 mps 617 mmHg 42%
    08:00 +13°C° 0 mm 2 mps 617 mmHg 37%
    09:00 +15°C° 0 mm 2 mps 618 mmHg 32%
    10:00 +17°C° 0 mm 2 mps 618 mmHg 26%
    11:00 +18°C° 0 mm 2 mps 618 mmHg 23%
    12:00 +19°C° 0 mm 2 mps 618 mmHg 20%
    13:00 +20°C° 0 mm 3 mps 618 mmHg 17%
    14:00 +20°C° 0 mm 3 mps 617 mmHg 17%
    15:00 +20°C° 0 mm 4 mps 617 mmHg 18%
    16:00 +19°C° 0 mm 4 mps 616 mmHg 18%
    17:00 +17°C° 0 mm 3 mps 616 mmHg 22%
    18:00 +13°C° 0 mm 3 mps 615 mmHg 27%
    19:00 +12°C° 0 mm 2 mps 615 mmHg 31%
    20:00 +9°C° 0 mm 2 mps 615 mmHg 30%
    21:00 +9°C° 0 mm 1 mps 614 mmHg 30%
    22:00 +8°C° 0 mm 1 mps 614 mmHg 29%
    23:00 +8°C° 0 mm 1 mps 614 mmHg 29%
    Show more